{"data":{"norad_id":63097,"intl_designator":"2025-037W","name":"STARLINK-32923","alt_names":[],"object_type":"PAYLOAD","status":"ACTIVE","operator":null,"country":"US","launch_date":"2025-02-23","launch_site_code":"AFWTR","launch_vehicle":null,"mission":null,"orbit_class":"UNKNOWN","rcs_meters":null,"size_class":null,"mass_kg":null,"dimensions":null,"purposes":["comms"],"wikipedia_slug":null,"has_3d_model":false,"image_url":null,"decayed_at":null,"tle_current":{"epoch":"2026-05-25T02:48:50.036256Z","epoch_age_seconds":75653,"freshness":"FRESH","line1":"1 63097U 25037W   26145.11724579 -.00001537  00000+0 -12102-3 0  9992","line2":"2 63097  70.0005 161.6150 0004444 266.9742  93.0908 14.98331536 70055","mean_motion":14.98331536,"eccentricity":0.0004444,"inclination_deg":70.0005,"raan_deg":161.615,"arg_perigee_deg":266.9742,"mean_anomaly_deg":93.0908,"bstar":-0.00012102,"rev_number":7005,"period_min":96.106900602538,"perigee_km":568.96247738532,"apogee_km":575.13980460504,"semimajor_km":6950.1881409952,"source":"CELESTRAK","updated_at":"2026-05-25T13:38:19.881389Z"}}}